RH
39 41 43 48 51 53 57 59 65 72 80 82 85 84 84 86 81 81 88 92 94 90
37 39 42 45 48 50 53 53 56 62 68 73 73 75 82 84 83 85 89 91 95 90
34 37 41 44 48 54 57 59 56 54 54 59 61 64 67 69 75 78 83 87 87 87
35 36 37 40 44 48 51 58 66 67 64 60 58 63 65 64 63 61 65 70 76 80
35 36 38 38 40 44 47 49 51 57 66 68 66 66 67 67 64 65 66 68 75 78
38 39 38 40 43 44 46 49 52 52 53 55 59 65 65 66 66 65 65 69 69 70
45 43 44 44 45 47 48 51 52 54 55 53 52 51 58 62 62 61 60 62 65 69
55 49 50 52 52 53 52 53 54 56 53 54 54 50 49 52 55 58 58 59 58 59
60 60 59 58 59 62 59 56 59 58 54 53 54 54 55 56 57 56 56 55 55 58
68 64 61 65 68 68 66 62 62 63 62 59 58 57 58 60 61 63 61 62 61 56
77 75 69 67 65 64 67 67 66 67 66 66 63 64 66 67 68 68 66 62 62 63
66 76 79 77 72 69 71 71 69 69 70 67 67 67 71 75 74 74 75 70 65 67
57 61 66 75 80 77 80 75 75 75 72 71 69 73 71 76 81 80 82 83 80 83
61 59 59 63 71 78 79 79 81 81 81 82 79 77 72 78 85 84 84 85 86 88